Ahoskie, NC

3:21 AM EDT on June 26, 2017 (GMT -0400)
Tri County

Weather History for KASJ - August, 2013

Change the Weather History Date:

Sunday, August 25, 2013

  Actual Average (KEMV) Record (KEMV)
Temperature  
Mean Temperature 68 °F -  
Max Temperature 78 °F 84 °F 98 °F (2007)
Min Temperature 57 °F 61 °F 51 °F (1984)
Cooling Degree Days 2    
Growing Degree Days 18 (Base 50)    
Moisture  
Dew Point 58 °F    
Average Humidity 73    
Maximum Humidity 94    
Minimum Humidity 44    
Precipitation  
Precipitation 0.00 in - - ()
Sea Level Pressure  
Sea Level Pressure 30.34 in    
Wind  
Wind Speed 2 mph (NNE)    
Max Wind Speed 12 mph    
Max Gust Speed -    
Visibility 10 miles    
Events      
Averages and records for this station are not official NWS values.
T = Trace of Precipitation, MM = Missing Value Source: NWS Daily Summary

Daily Weather History Graph

Daily Weather History Graph

Search for Another Location

Airport or City:

Trip Planner

Search our weather history database for the weather conditions in past years. The results will help you decide how hot, cold, wet, or windy it might be!

Date:

Astronomy

Aug. 25, 2013 Rise Set
Actual Time 6:34 AM EDT 7:45 PM EDT
Civil Twilight 6:08 AM EDT 8:12 PM EDT
Nautical Twilight 5:36 AM EDT 8:44 PM EDT
Astronomical Twilight 5:03 AM EDT 9:17 PM EDT
Moon 10:26 PM EDT (8/25) 11:24 AM EDT (8/25)
Length of Visible Light 14h 04m
Length of Day
13h 11m
Waning Gibbous, 76% of the Moon is Illuminated
Aug 25
Waning Gibbous
Aug 28
Last Quarter
Sep 5
New
Sep 12
First Quarter
Sep 19
Full

Hourly Weather History & Observations

Time (EDT) Temp. Dew Point Humidity Pressure Visibility Wind Dir Wind Speed Gust Speed Precip Events Conditions
12:15 AM 63.5 °F 60.8 °F 91% 30.32 in 10.0 mi Calm Calm - N/A   Scattered Clouds
12:35 AM 63.9 °F 61.0 °F 90% 30.32 in 10.0 mi Calm Calm - N/A   Clear
12:55 AM 63.7 °F 60.8 °F 90% 30.32 in 10.0 mi Calm Calm - N/A   Clear
1:15 AM 63.5 °F 60.8 °F 91% 30.32 in 10.0 mi Calm Calm - N/A   Clear
1:35 AM 63.3 °F 60.4 °F 90% 30.31 in 10.0 mi Calm Calm - N/A   Clear
1:55 AM 62.6 °F 60.1 °F 91% 30.31 in 10.0 mi Calm Calm - N/A   Clear
2:15 AM 62.1 °F 59.9 °F 93% 30.31 in 10.0 mi Calm Calm - N/A   Clear
2:35 AM 62.2 °F 59.9 °F 92% 30.31 in 10.0 mi Calm Calm - N/A   Clear
2:55 AM 61.2 °F 59.0 °F 93% 30.31 in 10.0 mi Calm Calm - N/A   Clear
3:15 AM 61.7 °F 59.2 °F 91% 30.31 in 10.0 mi Calm Calm - N/A   Clear
3:35 AM 60.3 °F 57.9 °F 92% 30.31 in 10.0 mi Calm Calm - N/A   Clear
3:55 AM 60.8 °F 58.3 °F 91% 30.31 in 10.0 mi Calm Calm - N/A   Clear
4:15 AM 61.0 °F 59.0 °F 93% 30.30 in 10.0 mi Calm Calm - N/A   Clear
4:35 AM 59.5 °F 57.9 °F 94% 30.31 in 10.0 mi Calm Calm - N/A   Clear
4:55 AM 59.2 °F 57.6 °F 94% 30.31 in 10.0 mi Calm Calm - N/A   Clear
5:15 AM 58.6 °F 56.7 °F 93% 30.31 in 10.0 mi Calm Calm - N/A   Clear
5:35 AM 58.8 °F 57.0 °F 94% 30.31 in 10.0 mi Calm Calm - N/A   Clear
5:55 AM 59.0 °F 56.8 °F 93% 30.32 in 10.0 mi North 3.5 mph - N/A   Clear
6:15 AM 59.4 °F 57.6 °F 94% 30.32 in 10.0 mi Calm Calm - N/A   Clear
6:35 AM 59.0 °F 57.2 °F 94% 30.33 in 10.0 mi Calm Calm - N/A   Clear
6:55 AM 59.0 °F 56.8 °F 93% 30.34 in 10.0 mi North 3.5 mph - N/A   Clear
7:15 AM 59.4 °F 57.2 °F 93% 30.36 in 10.0 mi North 4.6 mph - N/A   Clear
7:35 AM 60.8 °F 58.3 °F 91% 30.36 in 10.0 mi North 3.5 mph - N/A   Clear
7:55 AM 62.4 °F 59.9 °F 91% 30.37 in 10.0 mi North 5.8 mph - N/A   Clear
8:15 AM 64.2 °F 60.6 °F 88% 30.37 in 10.0 mi North 5.8 mph - N/A   Clear
8:35 AM 65.8 °F 61.2 °F 85% 30.37 in 10.0 mi North 5.8 mph - N/A   Clear
8:55 AM 68.0 °F 61.3 °F 79% 30.38 in 10.0 mi North 5.8 mph - N/A   Clear
9:15 AM 69.6 °F 60.6 °F 73% 30.38 in 10.0 mi North 9.2 mph - N/A   Clear
9:35 AM 70.7 °F 59.9 °F 69% 30.39 in 10.0 mi NNE 5.8 mph - N/A   Clear
9:55 AM 71.8 °F 59.2 °F 64% 30.40 in 10.0 mi NNE 8.1 mph - N/A   Scattered Clouds
10:15 AM 73.0 °F 59.2 °F 62% 30.40 in 10.0 mi NNE 11.5 mph - N/A   Scattered Clouds
10:35 AM 73.0 °F 58.6 °F 61% 30.40 in 10.0 mi NNE 9.2 mph - N/A   Scattered Clouds
10:55 AM 73.6 °F 58.3 °F 59% 30.40 in 10.0 mi NNE 8.1 mph - N/A   Scattered Clouds
11:15 AM 73.6 °F 56.8 °F 56% 30.39 in 10.0 mi NE 8.1 mph - N/A   Scattered Clouds
11:55 AM 74.5 °F 57.7 °F 56% 30.39 in 10.0 mi North 5.8 mph - N/A   Clear
12:15 PM 75.2 °F 57.7 °F 54% 30.39 in 10.0 mi North 5.8 mph - N/A   Scattered Clouds
12:35 PM 75.7 °F 58.6 °F 55% 30.38 in 10.0 mi North 6.9 mph - N/A   Scattered Clouds
12:55 PM 74.7 °F 57.4 °F 55% 30.38 in 10.0 mi NNE 6.9 mph - N/A   Scattered Clouds
1:15 PM 75.9 °F 56.8 °F 51% 30.37 in 10.0 mi NNE 8.1 mph - N/A   Clear
1:35 PM 76.5 °F 57.4 °F 52% 30.36 in 10.0 mi NNE 8.1 mph - N/A   Clear
1:55 PM 77.5 °F 57.6 °F 50% 30.36 in 10.0 mi NNE 5.8 mph - N/A   Scattered Clouds
2:15 PM 77.0 °F 56.5 °F 49% 30.35 in 10.0 mi NE 4.6 mph - N/A   Scattered Clouds
2:35 PM 77.5 °F 56.7 °F 48% 30.34 in 10.0 mi NNE 9.2 mph - N/A   Scattered Clouds
2:55 PM 78.1 °F 55.0 °F 45% 30.34 in 10.0 mi NNE 3.5 mph - N/A   Scattered Clouds
3:15 PM 78.8 °F 55.4 °F 44% 30.33 in 10.0 mi NNE 9.2 mph - N/A   Scattered Clouds
3:35 PM 78.1 °F 56.1 °F 47% 30.32 in 10.0 mi NE 8.1 mph - N/A   Clear
3:55 PM 77.4 °F 56.7 °F 49% 30.32 in 10.0 mi NNE 5.8 mph - N/A   Clear
4:15 PM 77.9 °F 54.3 °F 44% 30.31 in 10.0 mi NNE 8.1 mph - N/A   Clear
4:35 PM 78.1 °F 55.6 °F 46% 30.32 in 10.0 mi NNE 3.5 mph - N/A   Clear
4:55 PM 77.9 °F 55.6 °F 46% 30.32 in 10.0 mi North 6.9 mph - N/A   Clear
5:15 PM 77.9 °F 56.7 °F 48% 30.32 in 10.0 mi NE 8.1 mph - N/A   Scattered Clouds
5:35 PM 77.9 °F 55.4 °F 46% 30.32 in 10.0 mi North 8.1 mph - N/A   Clear
5:55 PM 77.2 °F 55.2 °F 47% 30.32 in 10.0 mi North 8.1 mph - N/A   Clear
6:15 PM 76.8 °F 56.7 °F 50% 30.32 in 10.0 mi North 4.6 mph - N/A   Clear
6:35 PM 76.1 °F 57.4 °F 52% 30.31 in 10.0 mi North 6.9 mph - N/A   Clear
6:55 PM 74.3 °F 57.9 °F 57% 30.31 in 10.0 mi North 5.8 mph - N/A   Clear
7:15 PM 72.5 °F 58.5 °F 61% 30.31 in 10.0 mi North 3.5 mph - N/A   Clear
7:35 PM 70.7 °F 58.8 °F 66% 30.31 in 10.0 mi Calm Calm - N/A   Clear
7:55 PM 69.8 °F 58.3 °F 67% 30.31 in 10.0 mi Calm Calm - N/A   Clear
8:15 PM 68.2 °F 58.1 °F 70% 30.31 in 10.0 mi Calm Calm - N/A   Clear
8:35 PM 66.7 °F 58.5 °F 75% 30.32 in 10.0 mi Calm Calm - N/A   Clear
8:55 PM 65.5 °F 58.1 °F 77% 30.32 in 10.0 mi Calm Calm - N/A   Clear
9:15 PM 65.3 °F 57.6 °F 76% 30.32 in 10.0 mi Calm Calm - N/A   Clear
9:35 PM 63.5 °F 57.2 °F 80% 30.33 in 10.0 mi Calm Calm - N/A   Clear
9:55 PM 61.5 °F 57.4 °F 86% 30.32 in 10.0 mi Calm Calm - N/A   Clear
10:15 PM 60.3 °F 57.2 °F 90% 30.32 in 10.0 mi Calm Calm - N/A   Clear
10:35 PM 59.7 °F 56.7 °F 90% 30.33 in 10.0 mi Calm Calm - N/A   Clear
10:55 PM 58.8 °F 56.1 °F 91% 30.33 in 10.0 mi Calm Calm - N/A   Clear
11:15 PM 57.9 °F 55.8 °F 92% 30.32 in 10.0 mi Calm Calm - N/A   Clear
11:35 PM 57.9 °F 55.9 °F 93% 30.33 in 10.0 mi Calm Calm - N/A   Clear
11:55 PM 57.6 °F 55.6 °F 93% 30.34 in 10.0 mi Calm Calm - N/A   Clear